#timestamp,LO_Frequency,Hit,StdDev 
1507096815.6,286047001.1,N
1507096835.4,286047000.5,N
1507096855.3,286047000.1,N
1507096875.1,286047000.3,N
1507096895.9,286047001.1,N
1507096915.7,286047000.9,N
1507096935.5,286047000.2,N
1507096955.4,286047000.2,N
1507096975.2,286047000.4,N
1507096995.0,286047000.5,N
1507096995.9,286047000.5,N
1507097015.8,286047002.0,N
1507097035.6,286047002.0,N
1507097055.5,286047002.0,N
1507097075.3,286047002.0,N
1507097095.2,286047002.0,N
1507097115.9,286047000.3,N
1507097135.7,286047002.2,N
1507097155.6,286047000.1,N
1507097175.4,286047002.8,N
1507097195.2,286047000.3,N
1507097215.1,286046999.8,N
1507097216.0,286046999.8,N
1507097235.8,286047002.7,N
1507097255.7,286047002.3,N
1507097275.5,286047001.4,N
1507097295.3,286047002.8,N
1507097315.2,286047002.0,N
1507097335.0,286046999.8,N
1507097335.9,286046999.8,N
1507097355.8,286047001.9,N
1507097375.6,286046999.7,N
1507097395.4,286046999.8,N
1507097415.3,286047000.0,N
1507097435.1,286047002.8,N
1507097455.9,286047002.3,N
1507097475.7,286047002.6,N
1507097495.5,286047000.1,N
1507097515.4,286046998.9,N
1507097535.2,286047000.3,N
1507097555.1,286046999.8,N
1507097556.0,286046999.8,N
1507097575.8,286047002.0,N
1507097595.6,286047002.4,N
1507097615.5,286047002.4,N
1507097635.3,286046999.9,N
1507097655.1,286047002.6,N
1507097675.9,286047002.7,N
1507097695.7,286047002.6,N
1507097715.6,286047002.0,N
1507097735.4,286047002.6,N
1507097755.2,286047002.0,N
1507097775.1,286047002.3,N
1507097776.0,286047002.3,N
1507097795.8,286047002.7,N
1507097815.7,286047002.3,N
1507097835.5,286047004.4,Y
1507097855.3,286047000.9,P
1507097875.2,286047000.9,P
1507097895.0,286047001.1,P
1507097895.9,286047001.1,Y
1507097915.8,286046998.5,P
1507097935.6,286047001.1,N
1507097955.4,286046998.3,N
1507097975.3,286047000.4,N
1507097995.1,286046998.7,N
1507098015.9,286046999.1,N
1507098035.7,286047001.2,N
1507098055.5,286047001.0,N
1507098075.4,286046999.5,N
1507098095.2,286046998.1,N
1507098115.1,286047001.1,N
1507098116.0,286047001.1,N
1507098135.8,286047001.1,N
1507098155.6,286047002.6,N
1507098175.5,286047000.3,N
1507098195.3,286047000.1,N
1507098215.2,286047000.3,N
1507098235.9,286046998.5,N
1507098255.7,286047000.4,N
1507098275.6,286047000.1,N
1507098295.4,286046998.9,N
1507098315.3,286046999.4,N
1507098335.1,286046999.6,N
1507098336.0,286046999.6,N
1507098355.8,286046999.3,N
1507098375.7,286046999.5,N
1507098395.5,286046996.6,Y
1507098415.4,286046999.4,P
1507098435.2,286046996.9,P
1507098455.0,286046999.2,N
1507098455.9,286046999.2,N
1507098475.8,286046998.2,N
1507098495.6,286046998.2,N
1507098515.5,286046998.6,N
1507098535.3,286047000.8,N
1507098555.1,286047001.0,N
1507098575.9,286046998.1,N
1507098595.7,286047000.7,N
1507098615.5,286047000.9,N
1507098635.4,286046999.0,N
1507098655.2,286047001.2,N
1507098675.1,286047000.8,N
1507098676.0,286047000.8,N
1507098695.8,286046999.7,N
1507098715.6,286047002.8,N
1507098735.5,286047000.5,N
1507098755.3,286046999.9,N
1507098775.2,286047000.5,N
1507098795.9,286047000.9,N
1507098815.7,286046998.5,N
1507098835.6,286047001.0,N
1507098855.4,286047000.9,N
1507098875.2,286047000.8,N
1507098895.1,286047001.0,N
1507098896.0,286047001.0,N
1507098915.8,286047000.1,N
1507098935.7,286047002.3,N
1507098955.5,286047002.3,N
1507098975.3,286047001.0,N
1507098995.2,286046998.7,N
1507099015.0,286046998.6,N
1507099015.9,286046998.6,N
1507099035.8,286047001.0,N
1507099055.6,286047001.1,N
1507099075.4,286046999.3,N
1507099095.3,286046998.4,N
1507099115.1,286047000.8,N
1507099135.9,286047000.2,N
1507099155.7,286047002.8,N
1507099175.5,286046999.9,N
1507099195.4,286047000.1,N
1507099215.2,286047000.5,N
1507099235.1,286047000.2,N
1507099236.0,286047000.2,N
1507099255.8,286047000.3,N
1507099275.7,286047002.5,N
1507099295.5,286047001.8,N
1507099315.3,286047002.7,N
1507099335.2,286046999.9,N
1507099355.0,286047000.1,N
1507099355.9,286047000.1,N
1507099375.8,286046998.1,N
1507099395.6,286046998.2,N
1507099415.4,286047000.5,N
1507099435.3,286047002.2,N
1507099455.1,286047002.3,N
1507099475.9,286047000.9,N
1507099495.7,286047002.0,N
1507099515.5,286047000.3,N
1507099535.4,286047000.7,N
1507099555.2,286046998.7,N
1507099575.1,286046999.1,N
1507099576.0,286046999.1,N
1507099595.8,286046998.9,N
1507099615.6,286047001.2,N
1507099635.5,286046999.5,N
1507099655.3,286046999.6,N
1507099675.1,286046999.6,N
1507099695.9,286046997.7,N
1507099715.7,286046997.1,N
1507099735.6,286046997.9,N
1507099755.4,286046997.5,N
1507099775.2,286046996.9,N
1507099795.1,286046999.2,N
1507099796.0,286046999.2,N
1507099815.8,286046997.1,N
1507099835.7,286046997.2,N
1507099855.5,286046997.6,N
1507099875.3,286046997.5,N
1507099895.2,286046997.6,N
1507099915.0,286046996.0,N
1507099915.9,286046996.0,N
1507099935.8,286046996.2,N
1507099955.6,286046995.2,N
1507099975.4,286046995.1,N
1507099995.3,286046995.1,N
1507100015.1,286046995.2,N
1507100035.9,286046995.3,N
1507100055.7,286046996.2,N
1507100075.5,286046995.9,N
1507100095.4,286046995.9,N
1507100115.2,286046996.3,N
1507100135.1,286046996.0,N
1507100136.0,286046996.0,N
1507100155.8,286046996.4,N
1507100175.6,286046993.3,Y
1507100195.5,286046999.2,P
1507100215.3,286046997.6,N
1507100235.2,286046993.4,P
1507100255.9,286046995.9,N
1507100275.7,286046996.1,N
1507100295.6,286046995.7,N
1507100315.4,286046995.4,N
1507100335.3,286046993.4,Y
1507100355.1,286046999.5,P
1507100356.0,286046999.5,N
1507100375.8,286046999.6,N
1507100395.7,286046998.7,N
